Regional Weather Roundup
Issued by NWS

Home | Current Version | Previous Version | Graphics & Text | Print | Product List | Glossary On
Versions: 1 2 3 4 5 6 7 8 9 10 11 12 13 14 15 16 17 18 19 20 21 22 23 24 25 26 27 28 29 30 31 32 33 34 35 36 37 38 39 40 41 42 43 44 45 46 47 48 49 50
000
ASUS45 KTFX 111919
RWRMT
MONTANA HOURLY WEATHER ROUNDUP
NATIONAL WEATHER SERVICE GREAT FALLS MT
119 PM MDT FRI JUL 11 2014

NOTE: "FAIR" INDICATES FEW OR NO CLOUDS BELOW 12000 FEET WITH NO
SIGNIFICANT WEATHER AND/OR OBSTRUCTIONS TO VISIBILITY.

* THESE STATIONS ARE NOT UNDER NWS QUALITY CONTROL. THEY DO NOT
   REPORT WEATHER SUCH AS PRECIPITATION OR FOG.

MTZ001>007-043-112000-
WEST OF THE DIVIDE
CITY           SKY/WX    TMP DP  RH WIND       PRES   REMARKS
KALISPELL      SUNNY     77  52  42 VRB5      30.08S
MISSOULA       SUNNY     82  48  31 SE10      30.05F
BUTTE          SUNNY     77  46  33 SE13G21   30.17F
MULLAN PASS    SUNNY     70  43  38 VRB3      30.22R
* ESSEX        N/A      N/A N/A N/A N/A        N/A
* LINCOLN      N/A       64  48  56 NE11G18    N/A
* LOOKOUT PASS N/A       75  45  34 SW4G9      N/A
* POLSON       N/A       80  53  39 NE3        N/A
* RONAN APT    SUNNY     79  54  42 W6         N/A
* SEELEY LAKE  N/A       75  50  42 S9G17      N/A
* THOMP F APT  SUNNY     77  51  40 SE3G12     N/A
* YAAK HILL    N/A       86  51  30 S3         N/A
$$

MTZ008-052>055-112000-
SOUTHWEST MONTANA
CITY           SKY/WX    TMP DP  RH WIND       PRES   REMARKS
BOZEMAN        PTCLDY    75  54  48 N7        30.14F
DILLON         SUNNY     79  48  34 NE9       30.13F
W YELLOWSTONE  SUNNY     77  48  36 W9G16     30.22F
* THREE FORKS  SUNNY     77  72  85 E5         N/A
* BOULDER HILL N/A       63  48  58 N14        N/A
* MONIDA PASS  N/A       74  49  41 E7G12      N/A
* RAYNOLDS PAS N/A       71  23  16 N4G11      N/A
* WHITEHALL    N/A       79  51  38 E7G21      N/A
* WISE RIVER   N/A       78  39  25 SE11G17    N/A
$$

MTZ009>010-012-014-046-048-049-054-112000-
EAST SLOPES AND CENTRAL MONTANA
CITY           SKY/WX    TMP DP  RH WIND       PRES   REMARKS
CUT BANK       SUNNY     66  45  47 CALM      30.20F
GREAT FALLS    CLOUDY    64  48  56 CALM      30.20F
HELENA         SUNNY     72  50  46 VRB6      30.16F
* CONRAD       SUNNY     68  55  63 N/A        N/A
* DEARBORN     N/A       66  49  54 N4G11      N/A
* EAST GLACIER N/A       62  46  56 SE8        N/A
* MONARCH      N/A       56  48  75 W7         N/A
* ROGERS PASS  N/A       61  46  58 S3G9       N/A
* SAINT MARY   N/A       70  46  42 SE7G16     N/A
* SWEET GRASS  N/A       63  50  63 N8         N/A
* WHITE SULPH  N/A       71  55  57 W6G16      N/A
$$

MTZ011-013-016-021-035-040-045-047-050-051-112000-
NORTH CENTRAL MONTANA
CITY           SKY/WX    TMP DP  RH WIND       PRES   REMARKS
HAVRE          SUNNY     70  48  46 E5        30.17F
* CHINOOK      SUNNY     70  52  53 CALM      30.17F
* FORT BENTON  SUNNY     70  50  49 NE5       30.18F
* CHESTER      N/A       71  47  43 NE3G10     N/A
* DENTON       N/A       77  53  43 N4         N/A
* GEYSER       N/A       72  53  51 W2         N/A
* JUDITH GAP   N/A       72  50  46 SE8G16     N/A
* LOMA         N/A       69  52  55 N7G12      N/A
$$

MTZ017>020-022>027-061-062-112000-
NORTHEAST MONTANA
CITY           SKY/WX    TMP DP  RH WIND       PRES   REMARKS
GLASGOW        PTSUNNY   73  52  48 W10       30.12S
GLENDIVE       SUNNY     79  52  39 NW12G20   30.11R
JORDAN         SUNNY     77  54  45 N13       30.13R
SIDNEY         SUNNY     77  54  45 N10       30.10S
WOLF POINT     PTCLDY    79  52  39 NW10G16   30.10S
* BEAVER HILL  N/A       75  55  50 N19        N/A
* CIRCLE       N/A       74  57  55 N8         N/A
* LINDSAY DVD  N/A       70  55  59 NW8G15     N/A
* NAVAJO       N/A       70  52  53 NW16G22    N/A
$$

MTZ028>042-056>058-112000-
SOUTHCENTRAL AND SOUTHEAST MONTANA
CITY           SKY/WX    TMP DP  RH WIND       PRES   REMARKS
BAKER          PTCLDY    81  52  37 NE13      30.10S
BILLINGS       PTCLDY    75  54  48 NE6       30.14S
LIVINGSTON     PTCLDY    75  52  45 E17       30.16F
MILES CITY     SUNNY     82  52  35 N13       30.09R
* LAUREL APT   PTCLDY    77  54  45 NE10       N/A
* ROUNDUP APT  SUNNY     79  46  31 E6         N/A
* ALZADA       N/A       80  54  41 NE13       N/A   HI  80
* HYSHAM       N/A       79  47  32 E14G26     N/A
* REED POINT   N/A       75  57  54 N1G6       N/A
* ROSCOE HILL  N/A       65  51  61 N6         N/A
$$

REGIONAL REPORTS...DAKOTAS
CITY           SKY/WX    TMP DP  RH WIND       PRES   REMARKS
WILLISTON      SUNNY     79  52  39 N13       30.08R
DICKINSON      PTSUNNY   79  54  42 VRB6      30.07S
CROSBY         SUNNY     70  54  57 NW20G25   30.07S
TIOGA          SUNNY     72  54  53 NW8G16    30.11R
WATFORD CITY   SUNNY     75  55  50 N9        30.06S
BISMARCK       PTCLDY    81  50  34 VRB3      30.04R
GRAND FORKS    SUNNY     82  63  53 NW6       29.90R HI  83
FARGO          PTCLDY    86  70  59 N7        29.90R HI  91
BUFFALO SD     PTCLDY    81  55  41 NE18      30.02F HI  81
RAPID CITY     PTCLDY    86  64  48 N9        30.05S HI  87
$$

REGIONAL REPORTS...WYOMING/IDAHO/WASHINGTON
CITY           SKY/WX    TMP DP  RH WIND       PRES   REMARKS
GILLETTE       CLOUDY    79  61  54 NE14      30.11F
SHERIDAN       PTCLDY    84  57  40 NE7       30.11S HI  83
CODY           PTSUNNY  N/A N/A N/A NE13      30.15F
YELLOWSTONE LA PTCLDY    70  52  53 VRB3      30.32F
SALMON         SUNNY     86  45  24 N7        29.98F
MULLAN PASS    SUNNY     70  43  38 VRB3      30.22S
SAND POINT     SUNNY     82  50  33 N7        30.00F
SPOKANE        SUNNY     84  46  26 VRB6      29.99S
$$

REGIONAL REPORTS...ALBERTA
CITY           SKY/WX    TMP DP  RH WIND       PRES   REMARKS
CALGARY        SMOKE     66  48  52 S10G18    30.17F
LETHBRIDGE     SUNNY     64  48  56 S5        30.20F
MEDICINE HAT   PTSUNNY   68  48  49 W10       30.18F
EDMONTON       SMOKE     68  48  49 S10       30.12F
WATERTON GATE  N/A       64  48  56 NE5        N/A
CARDSTON       N/A       64  52  65 E3         N/A
MILK RIVER     N/A       64  48  56 NE5        N/A
$$

REGIONAL REPORTS...SASKATCHEWAN
CITY           SKY/WX    TMP DP  RH WIND       PRES   REMARKS
SWIFT CURRENT  PTSUNNY   63  52  68 NW13G18   30.14F
MOOSE JAW      SUNNY     70  54  57 NW18G25   30.09F
REGINA         PTCLDY    70  54  57 NW16G25   30.07S
VAL MARIE      N/A       68  50  53 N9         N/A
ASSINIBOIA     N/A       68  52  57 NW14G21    N/A
CORONACH       N/A       72  50  46 NW15G21    N/A

$$



USA.gov is the U.S. government's official web portal to all federal, state and local government web resources and services.